Weather History for Laramie, WY

Change the Weather History Date:

Friday, October 4, 2013

  Actual Average Record
Temperature  
Mean Temperature 25 °F 46 °F  
Max Temperature 30 °F 61 °F 78 °F (1963)
Min Temperature 19 °F 31 °F 19 °F (1985)
Degree Days  
Heating Degree Days 40 19  
Month to date heating degree days 83 74  
Since 1 July heating degree days 407 599  
Cooling Degree Days 0 0  
Month to date cooling degree days 0 0  
Year to date cooling degree days 162 67  
Moisture  
Dew Point 25 °F    
Average Humidity 89    
Maximum Humidity 100    
Minimum Humidity 77    
Precipitation  
Precipitation 0.25 in 0.03 in 0.47 in (2005)
Month to date precipitation 0.07 0.13  
Year to date precipitation 9.45 9.39  
Sea Level Pressure  
Sea Level Pressure 30.03 in    
Wind  
Wind Speed 22 mph (NNW)    
Max Wind Speed 35 mph    
Max Gust Speed 43 mph    
Visibility 2 miles    
Events Fog , Snow    
T = Trace of Precipitation, MM = Missing Value Source: NWS Daily Summary

Daily Weather History Graph

Daily Weather History Graph

Search for Another Location

Airport:

Trip Planner

Search our weather history database for the weather conditions in past years. The results will help you decide how hot, cold, wet, or windy it might be!

Date:

Astronomy

Oct. 04, 2013 Rise Set
Actual Time 7:02 AM MDT 6:39 PM MDT
Civil Twilight 6:35 AM MDT 7:06 PM MDT
Nautical Twilight 6:03 AM MDT 7:38 PM MDT
Astronomical Twilight 5:31 AM MDT 8:10 PM MDT
Moon 6:41 AM MDT (10/4) 6:22 PM MDT (10/4)
Length of Visible Light 12h 31m
Length of Day
11h 36m
Waning Crescent, 0% of the Moon is Illuminated
Oct 4
Waning Crescent
Oct 4
New
Oct 11
First Quarter
Oct 18
Full
Oct 26
Last Quarter

Hourly Weather History & Observations

Time (MDT) Temp. Windchill Dew Point Humidity Pressure Visibility Wind Dir Wind Speed Gust Speed Precip Events Conditions
12:10 AM 30.2 °F 19.8 °F 28.4 °F 93% 29.90 in 0.8 mi North 13.8 mph - 0.01 in Snow Light Snow
12:25 AM 30.2 °F 21.3 °F 28.4 °F 93% 29.90 in 0.5 mi North 10.4 mph - 0.02 in Fog , Snow Snow
12:49 AM 30.2 °F 21.3 °F 28.4 °F 93% 29.90 in 0.8 mi North 10.4 mph - 0.04 in Snow Light Snow
12:53 AM 30.0 °F 21.7 °F 28.9 °F 96% 29.74 in 1.0 mi North 9.2 mph - 0.04 in Snow Light Snow
1:05 AM 30.2 °F 20.8 °F 28.4 °F 93% 29.91 in 1.0 mi North 11.5 mph - 0.00 in Snow Light Snow
1:19 AM 28.4 °F 19.7 °F 28.4 °F 100% 29.91 in 0.8 mi North 9.2 mph - 0.01 in Snow Light Snow
1:35 AM 30.2 °F 21.9 °F 28.4 °F 93% 29.90 in 1.0 mi NNE 9.2 mph - 0.02 in Snow Light Snow
1:42 AM 30.2 °F 22.6 °F 28.4 °F 93% 29.90 in 1.2 mi North 8.1 mph - 0.02 in Snow Light Snow
1:53 AM 28.9 °F 20.4 °F 28.9 °F 100% 29.78 in 1.0 mi North 9.2 mph - 0.02 in Snow Light Snow
2:08 AM 28.4 °F 19.1 °F 28.4 °F 100% 29.91 in 1.0 mi North 10.4 mph - 0.01 in Snow Light Snow
2:19 AM 28.4 °F 17.0 °F 28.4 °F 100% 29.90 in 0.8 mi North 15.0 mph 20.7 mph 0.02 in Snow Light Snow
2:36 AM 28.4 °F 18.0 °F 28.4 °F 100% 29.89 in 0.8 mi North 12.7 mph - 0.03 in Snow Light Snow
2:51 AM 28.4 °F 18.5 °F 28.4 °F 100% 29.90 in 1.0 mi North 11.5 mph 23.0 mph 0.03 in Snow Light Snow
2:53 AM 28.9 °F 20.4 °F 28.0 °F 96% 29.78 in 1.2 mi North 9.2 mph 19.6 mph 0.03 in Snow Light Snow
3:05 AM 28.4 °F 17.5 °F 28.4 °F 100% 29.93 in 0.5 mi NW 13.8 mph - 0.01 in Fog , Snow Snow
3:13 AM 28.4 °F 18.0 °F 26.6 °F 93% 29.92 in 0.5 mi NNW 12.7 mph - 0.01 in Fog , Snow Snow
3:35 AM 28.4 °F 16.6 °F 26.6 °F 93% 29.90 in 0.8 mi North 16.1 mph - 0.03 in Snow Light Snow
3:44 AM 28.4 °F 18.5 °F 26.6 °F 93% 29.92 in 1.0 mi North 11.5 mph - 0.03 in Snow Light Snow
3:53 AM 28.0 °F 19.3 °F 28.0 °F 100% 29.81 in 1.0 mi NNW 9.2 mph - 0.03 in Snow Light Snow
4:01 AM 28.4 °F 19.1 °F 28.4 °F 100% 29.92 in 0.8 mi NNW 10.4 mph - 0.00 in Snow Light Snow
4:14 AM 28.4 °F 17.5 °F 26.6 °F 93% 29.91 in 0.5 mi NNW 13.8 mph - 0.01 in Fog , Snow Snow
4:24 AM 28.4 °F 18.0 °F 26.6 °F 93% 29.91 in 0.5 mi NNW 12.7 mph - 0.01 in Fog , Snow Snow
4:49 AM 28.4 °F 18.5 °F 26.6 °F 93% 29.93 in 0.8 mi NNW 11.5 mph - 0.02 in Snow Light Snow
4:50 AM 28.0 °F 18.1 °F 27.0 °F 96% 29.84 in 0.8 mi NNW 11.5 mph - 0.02 in Snow Light Snow
5:19 AM 28.4 °F 20.4 °F 26.6 °F 93% 29.94 in 0.5 mi NNW 8.1 mph - 0.01 in Fog , Snow Snow
5:53 AM 28.0 °F 17.5 °F 27.0 °F 96% 29.89 in 0.2 mi North 12.7 mph - 0.05 in Fog , Snow Heavy Snow
6:02 AM 28.4 °F 18.0 °F 26.6 °F 93% 29.96 in 0.2 mi North 12.7 mph - 0.01 in Fog , Snow Heavy Snow
6:23 AM 26.6 °F 16.8 °F 26.6 °F 100% 29.95 in 0.2 mi North 10.4 mph - 0.03 in Fog , Snow Snow
6:53 AM 27.0 °F 16.1 °F 26.1 °F 96% 29.92 in 0.5 mi NW 12.7 mph - 0.04 in Fog , Snow Snow
7:06 AM 26.6 °F 16.8 °F 26.6 °F 100% 29.98 in 0.8 mi NNW 10.4 mph - 0.00 in Snow Light Snow
7:15 AM 26.6 °F 16.8 °F 26.6 °F 100% 29.98 in 0.5 mi NW 10.4 mph - 0.00 in Fog , Snow Light Snow
7:53 AM 26.1 °F 12.3 °F 24.1 °F 92% 29.95 in 0.2 mi NW 19.6 mph 25.3 mph 0.01 in Fog , Snow Snow
8:53 AM 25.0 °F 12.2 °F 24.1 °F 96% 30.05 in 0.2 mi NNW 16.1 mph 26.5 mph 0.00 in Fog , Snow Snow
9:28 AM 24.8 °F 10.7 °F 24.8 °F 100% 30.02 in 0.2 mi NNW 19.6 mph - 0.00 in Fog , Snow Snow
9:53 AM 25.0 °F 10.9 °F 24.1 °F 96% 30.05 in 0.2 mi NNW 19.6 mph 27.6 mph 0.00 in Fog , Snow Snow
10:30 AM 26.6 °F 12.7 °F 24.8 °F 93% 30.04 in 0.5 mi NW 20.7 mph 29.9 mph 0.00 in Fog , Snow Light Snow
10:53 AM 26.1 °F 11.3 °F 24.1 °F 92% 30.08 in 0.5 mi NNW 23.0 mph - 0.01 in Fog , Snow Light Snow
11:53 AM 26.1 °F 10.4 °F 24.1 °F 92% 30.11 in 0.2 mi NNW 26.5 mph - 0.00 in Fog , Snow Snow
12:06 PM 26.6 °F 10.6 °F 23.0 °F 86% 30.08 in 0.2 mi NNW 28.8 mph - 0.00 in Fog , Snow Snow
12:33 PM 26.6 °F 9.6 °F 23.0 °F 86% 30.10 in 0.2 mi NNW 33.4 mph 38.0 mph 0.00 in Fog , Snow Light Snow
12:53 PM 25.0 °F 7.3 °F 21.9 °F 88% 30.14 in 0.2 mi NW 33.4 mph 40.3 mph 0.00 in Fog , Snow Snow
1:53 PM 24.1 °F 5.9 °F 21.0 °F 88% 30.17 in 0.2 mi NW 34.5 mph 40.3 mph 0.00 in Fog , Snow Snow
2:53 PM 24.1 °F 6.4 °F 21.0 °F 88% 30.19 in 0.5 mi NW 32.2 mph 39.1 mph 0.00 in Fog , Snow Light Snow
3:38 PM 24.8 °F 8.7 °F 21.2 °F 86% 30.15 in 0.8 mi NNW 26.5 mph 38.0 mph 0.00 in Snow Light Snow
3:45 PM 24.8 °F 8.7 °F 21.2 °F 86% 30.16 in 1.0 mi NNW 26.5 mph 39.1 mph 0.00 in Snow Light Snow
3:53 PM 24.1 °F 7.7 °F 21.9 °F 91% 30.23 in 0.8 mi NNW 26.5 mph 35.7 mph 0.00 in Snow Light Snow
4:07 PM 24.8 °F 9.3 °F 21.2 °F 86% 30.17 in 0.5 mi NNW 24.2 mph 35.7 mph 0.00 in Fog , Snow Light Snow
4:21 PM 24.8 °F 9.0 °F 21.2 °F 86% 30.18 in 0.8 mi NW 25.3 mph 33.4 mph 0.00 in Snow Light Snow
4:29 PM 24.8 °F 9.0 °F 21.2 °F 86% 30.18 in 0.5 mi NW 25.3 mph 31.1 mph 0.00 in Fog , Snow Light Snow
4:33 PM 24.8 °F 8.7 °F 21.2 °F 86% 30.19 in 1.0 mi NW 26.5 mph 32.2 mph 0.00 in Snow Light Snow
4:44 PM 24.8 °F 8.1 °F 21.2 °F 86% 30.19 in 1.2 mi NW 28.8 mph 34.5 mph 0.00 in Snow Light Snow
4:53 PM 24.1 °F 6.6 °F 21.0 °F 88% 30.26 in 1.5 mi NW 31.1 mph 35.7 mph 0.00 in Snow Light Snow
4:59 PM 24.8 °F 8.4 °F 21.2 °F 86% 30.19 in 3.0 mi NW 27.6 mph 34.5 mph N/A Snow Blowing Snow
5:53 PM 24.1 °F 7.4 °F 19.9 °F 84% 30.28 in 10.0 mi NW 27.6 mph 34.5 mph N/A   Overcast
6:53 PM 21.9 °F 5.8 °F 18.0 °F 85% 30.29 in 10.0 mi NW 23.0 mph - N/A   Partly Cloudy
7:53 PM 21.0 °F 4.6 °F 18.0 °F 88% 30.30 in 10.0 mi NNW 23.0 mph - N/A   Overcast
8:53 PM 21.0 °F 5.0 °F 18.0 °F 88% 30.32 in 10.0 mi NNW 21.9 mph 28.8 mph N/A   Mostly Cloudy
9:53 PM 21.0 °F 3.9 °F 17.1 °F 85% 30.32 in 10.0 mi NW 25.3 mph - N/A   Scattered Clouds
10:53 PM 19.9 °F 4.8 °F 15.1 °F 81% 30.31 in 10.0 mi NW 18.4 mph - N/A   Clear
11:53 PM 21.0 °F 5.0 °F 16.0 °F 81% 30.31 in 10.0 mi NW 21.9 mph - N/A   Clear